[[{"header":{"parameterUnit":"m.s-1","parameterCategory":1,"la1":30.2991,"la2":30.254,"lo1":-89.0895,"lo2":-89.0444,"dy":0.0017,"dx":0.0017,"nx":28,"ny":28,"refTime":"2026-01-03T09:00:00:Z","depth":0,"parameterNumber":2,"parameterNumberName":"U-component_of_WINDS"},"data":[0,0,0,0,0,0,0,0,0,0,0,0,0,0,0,0,0,0,0,0,0,0,0,0,0,0,0,0,0,0,0,0,0,0,0,0,0,0,0,0,0,0,0,0,0,0,0,0,0,0,0,0,0,0,0,0,0,0,-0.0831,-0.0831,0,-0.0857,-0.0857,-0.0857,-0.0875,-0.0875,-0.0875,-0.0875,-0.0903,-0.0903,-0.0904,0,0,0,0,0,0,0,0,0,0,0,0,0,-0.0797,-0.0798,-0.0831,-0.0831,-0.0832,-0.0857,-0.0857,-0.0857,-0.0875,-0.0875,-0.0875,-0.0875,-0.0902,-0.0903,-0.0904,0,0,0,0,0,0,0,0,0,0,0,0,0,-0.0816,-0.0798,-0.0831,-0.0843,-0.0845,-0.0857,-0.0857,-0.0857,-0.0875,-0.0875,-0.0875,-0.0875,-0.0902,-0.0903,-0.0904,-0.0906,0,0,-0.0907,-0.0907,0,0,0,0,0,0,0,0,-0.0815,-0.0818,-0.0841,-0.0843,-0.0844,-0.0863,-0.0855,-0.0874,-0.0875,-0.0863,-0.0875,-0.0875,-0.0889,-0.0891,-0.0896,-0.0907,-0.0908,-0.0907,-0.0907,-0.0908,-0.0908,0,0,0,0,0,0,0,-0.0814,-0.0817,-0.0841,-0.0842,-0.0843,-0.0848,-0.0851,-0.0859,-0.0875,-0.0864,-0.0866,-0.0868,-0.089,-0.0895,-0.0896,-0.0909,-0.0907,-0.0908,-0.0908,-0.0909,-0.0922,-0.0922,0,0,0,0,0,0,-0.0811,-0.0815,-0.084,-0.0842,-0.083,-0.0848,-0.0851,-0.0857,-0.0875,-0.0878,-0.0868,-0.0869,-0.0893,-0.0895,-0.0897,-0.09,-0.0908,-0.0909,-0.0909,-0.0922,-0.0922,-0.0922,0,0,0,0,0,0,-0.081,-0.0813,-0.0839,-0.0829,-0.0833,-0.0848,-0.0854,-0.0857,-0.0862,-0.0878,-0.0881,-0.087,-0.0893,-0.0896,-0.0903,-0.0902,-0.0909,-0.091,-0.0922,-0.0922,-0.0922,-0.0907,0,0,0,0,0,0,-0.0809,-0.0812,-0.0813,-0.0829,-0.0833,-0.0845,-0.0854,-0.0857,-0.0863,-0.0864,-0.088,-0.0883,-0.0894,-0.0902,-0.0904,-0.0903,-0.0911,-0.0923,-0.0922,-0.0922,-0.0907,-0.0906,-0.0905,0,0,0,0,0,-0.0807,-0.0808,-0.0813,-0.0816,-0.0835,-0.0845,-0.0847,-0.0859,-0.0863,-0.0864,-0.0874,-0.0883,-0.0901,-0.0902,-0.0905,-0.0904,-0.0923,-0.0922,-0.0922,-0.0908,-0.0906,-0.0905,0,0,0,0,0,0,-0.0793,-0.0811,-0.0816,-0.0822,-0.0832,-0.0848,-0.0849,-0.0857,-0.0866,-0.0867,-0.0881,-0.0885,-0.089,-0.0898,-0.0899,-0.0907,-0.0913,-0.0913,-0.0901,-0.09,-0.0898,-0.0897,-0.0911,0,0,0,0,0,-0.079,-0.0797,-0.0812,-0.0816,-0.082,-0.0834,-0.0839,-0.0847,-0.0857,-0.0861,-0.0872,-0.0882,-0.089,-0.0895,-0.0904,-0.0908,-0.0912,-0.0909,-0.0907,-0.0906,-0.0906,-0.0908,-0.0907,-0.092,-0.092,-0.092,0,0,-0.0785,-0.0796,-0.0799,-0.0813,-0.0821,-0.0828,-0.0837,-0.0844,-0.0848,-0.0863,-0.087,-0.0878,-0.089,-0.0895,-0.0899,-0.0902,-0.0903,-0.0906,-0.0905,-0.0905,-0.0908,-0.0907,-0.0906,-0.092,-0.092,-0.092,0,0,-0.0779,-0.0788,-0.0792,-0.0799,-0.0811,-0.082,-0.0821,-0.0835,-0.0841,-0.0848,-0.0859,-0.0864,-0.0878,-0.0886,-0.0892,-0.0887,-0.0895,-0.0889,-0.0882,-0.0884,-0.0883,-0.0882,-0.088,-0.0879,-0.0889,-0.0889,-0.0889,0,-0.0772,-0.0781,-0.0793,-0.0798,-0.0804,-0.0816,-0.082,-0.0827,-0.0841,-0.0845,-0.0848,-0.0865,-0.0874,-0.0881,-0.088,-0.0884,-0.0885,-0.0888,-0.0882,-0.0882,-0.0881,-0.0879,-0.0878,-0.0888,-0.0889,-0.0889,-0.0889,0,-0.0771,-0.0778,-0.0779,-0.0792,-0.0797,-0.0802,-0.0814,-0.0818,-0.0825,-0.0834,-0.084,-0.0851,-0.0862,-0.0864,-0.0871,-0.0872,-0.0874,-0.088,-0.0886,-0.0879,-0.0877,-0.0877,-0.0887,-0.0888,-0.0888,-0.0888,0,0,-0.0758,-0.0776,-0.0776,-0.0782,-0.0795,-0.08,-0.0805,-0.0814,-0.0817,-0.0826,-0.0831,-0.0841,-0.0846,-0.0853,-0.0861,-0.0862,-0.0857,-0.0868,-0.0869,-0.0866,-0.0858,-0.0853,-0.0852,-0.0862,-0.0862,-0.0862,-0.0857,0,-0.0754,-0.0763,-0.0773,-0.0778,-0.0784,-0.0795,-0.0799,-0.0807,-0.0815,-0.0821,-0.0829,-0.0836,-0.0842,-0.0846,-0.0848,-0.0857,-0.0856,-0.0858,-0.0866,-0.0866,-0.0863,-0.0852,-0.0847,-0.0842,-0.0856,-0.0856,-0.0856,0,-0.0751,-0.0759,-0.0765,-0.0776,-0.0779,-0.0782,-0.0791,-0.0797,-0.0806,-0.0811,-0.0818,-0.0826,-0.0831,-0.0837,-0.0844,-0.0845,-0.0849,-0.0853,-0.0853,-0.0855,-0.0861,-0.0853,-0.0841,-0.084,-0.0855,-0.0855,-0.0855,0,-0.0741,-0.0753,-0.0757,-0.0762,-0.0775,-0.0777,-0.0783,-0.0793,-0.0797,-0.0805,-0.0808,-0.0816,-0.0821,-0.0827,-0.0837,-0.084,-0.0843,-0.0849,-0.0847,-0.0847,-0.0848,-0.0848,-0.0836,-0.085,-0.085,-0.085,-0.085,0,-0.0736,-0.0739,-0.0753,-0.0756,-0.0759,-0.077,-0.0773,-0.078,-0.0788,-0.0792,-0.0802,-0.0806,-0.0819,-0.0824,-0.0832,-0.0836,-0.0838,-0.0843,-0.0845,-0.0842,-0.0841,-0.0845,-0.0846,-0.085,-0.085,-0.085,-0.085,0,-0.0725,-0.0735,-0.074,-0.0752,-0.0755,-0.0757,-0.0768,-0.0771,-0.0778,-0.0783,-0.0785,-0.0797,-0.0803,-0.0814,-0.0824,-0.0829,-0.0832,-0.0835,-0.0829,-0.083,-0.0827,-0.0827,-0.0818,-0.0817,-0.0831,-0.0831,-0.0831,0,-0.0722,-0.0724,-0.0736,-0.0739,-0.0744,-0.075,-0.0754,-0.0764,-0.0768,-0.0778,-0.078,-0.0787,-0.0794,-0.0803,-0.0813,-0.082,-0.0824,-0.082,-0.0825,-0.0822,-0.0824,-0.0824,-0.0824,-0.0819,-0.0819,-0.0819,-0.0819,0,-0.0714,-0.0718,-0.0724,-0.0731,-0.0736,-0.0742,-0.0748,-0.0751,-0.0762,-0.0766,-0.0773,-0.0777,-0.0787,-0.0793,-0.0802,-0.0808,-0.0815,-0.0816,-0.0816,-0.0814,-0.081,-0.0812,-0.0825,-0.0817,-0.0817,-0.0817,-0.0817,-0.0817,-0.0707,-0.0709,-0.0717,-0.0723,-0.0729,-0.0735,-0.0738,-0.0745,-0.075,-0.0758,-0.0764,-0.077,-0.0778,-0.079,-0.0795,-0.08,-0.0803,-0.0803,-0.0803,-0.0803,-0.0802,-0.0808,-0.0801,-0.0802,-0.0802,-0.0802,-0.0802,0,-0.07,-0.0705,-0.071,-0.0719,-0.0723,-0.0728,-0.0736,-0.0739,-0.0744,-0.0751,-0.0756,-0.0763,-0.0769,-0.0778,-0.0785,-0.0787,-0.0791,-0.0789,-0.0789,-0.079,-0.0799,-0.0798,-0.0786,-0.0786,-0.0786,-0.0786,-0.0786,-0.0786,-0.0697,-0.07,-0.0705,-0.0712,-0.0717,-0.0723,-0.0726,-0.0731,-0.0737,-0.0744,-0.0749,-0.0754,-0.0762,-0.0769,-0.0775,-0.0777,-0.078,-0.0777,-0.078,-0.0788,-0.079,-0.0791,-0.0791,-0.0777,-0.0777,-0.0771,-0.0771,-0.0771]},{"header":{"parameterUnit":"m.s-1","parameterCategory":1,"la1":30.2991,"la2":30.254,"lo1":-89.0895,"lo2":-89.0444,"dy":0.0017,"dx":0.0017,"nx":28,"ny":28,"refTime":"2026-01-03T09:00:00:Z","depth":0,"parameterNumber":3,"parameterNumberName":"V-component_of_WINDS"},"data":[0,0,0,0,0,0,0,0,0,0,0,0,0,0,0,0,0,0,0,0,0,0,0,0,0,0,0,0,0,0,0,0,0,0,0,0,0,0,0,0,0,0,0,0,0,0,0,0,0,0,0,0,0,0,0,0,0,0,-6.6107,-6.6108,0,-6.6182,-6.6183,-6.6184,-6.6102,-6.6099,-6.6096,-6.6093,-6.6166,-6.6171,-6.6175,0,0,0,0,0,0,0,0,0,0,0,0,0,-6.5889,-6.5894,-6.6107,-6.6108,-6.6109,-6.6182,-6.6183,-6.6184,-6.6102,-6.6099,-6.6095,-6.6091,-6.6164,-6.617,-6.6176,0,0,0,0,0,0,0,0,0,0,0,0,0,-6.5976,-6.5895,-6.6107,-6.6077,-6.6075,-6.6182,-6.6183,-6.6185,-6.6103,-6.6099,-6.6094,-6.6089,-6.6162,-6.6169,-6.6177,-6.6315,0,0,-6.6199,-6.6202,0,0,0,0,0,0,0,0,-6.5971,-6.5984,-6.608,-6.6079,-6.6077,-6.6128,-6.6133,-6.6228,-6.6104,-6.6092,-6.6093,-6.6087,-6.6157,-6.6164,-6.6189,-6.6319,-6.6322,-6.62,-6.6204,-6.6207,-6.6209,0,0,0,0,0,0,0,-6.5965,-6.598,-6.6137,-6.6082,-6.608,-6.6059,-6.6066,-6.6151,-6.615,-6.6093,-6.6087,-6.6098,-6.6155,-6.6182,-6.619,-6.6323,-6.6199,-6.6206,-6.621,-6.6213,-6.6573,-6.6578,0,0,0,0,0,0,-6.5963,-6.5976,-6.6134,-6.6139,-6.6012,-6.6067,-6.6075,-6.6116,-6.6149,-6.6149,-6.6102,-6.6094,-6.6172,-6.6181,-6.6192,-6.6359,-6.6207,-6.6214,-6.6218,-6.6568,-6.6575,-6.658,0,0,0,0,0,0,-6.5959,-6.5978,-6.6131,-6.6056,-6.6074,-6.6075,-6.6123,-6.612,-6.6147,-6.6155,-6.6154,-6.6129,-6.6168,-6.6182,-6.6286,-6.636,-6.6217,-6.6224,-6.6562,-6.657,-6.6577,-6.6692,0,0,0,0,0,0,-6.5953,-6.5977,-6.603,-6.6058,-6.6078,-6.6226,-6.6127,-6.6125,-6.616,-6.6151,-6.6181,-6.6181,-6.6166,-6.6276,-6.6294,-6.6367,-6.6229,-6.6556,-6.6566,-6.6575,-6.6682,-6.6703,-6.6721,0,0,0,0,0,-6.5946,-6.6058,-6.6034,-6.6053,-6.6145,-6.623,-6.6241,-6.6222,-6.6167,-6.622,-6.6226,-6.618,-6.6349,-6.6287,-6.6306,-6.6384,-6.6551,-6.6563,-6.6574,-6.6673,-6.6699,-6.6721,0,0,0,0,0,0,-6.6037,-6.6061,-6.6034,-6.6159,-6.6194,-6.6216,-6.6283,-6.625,-6.6299,-6.6288,-6.626,-6.6268,-6.6379,-6.6391,-6.6322,-6.6521,-6.6441,-6.6457,-6.6509,-6.6534,-6.6553,-6.6549,-6.6236,0,0,0,0,0,-6.6073,-6.6141,-6.6157,-6.6266,-6.6285,-6.6281,-6.6317,-6.63,-6.6333,-6.6347,-6.636,-6.6393,-6.6454,-6.6494,-6.655,-6.6683,-6.6689,-6.6745,-6.6765,-6.6781,-6.6796,-6.6869,-6.6895,-6.6619,-6.6618,-6.6618,0,0,-6.6145,-6.6167,-6.6211,-6.6285,-6.631,-6.638,-6.6294,-6.6371,-6.6424,-6.6358,-6.6459,-6.647,-6.6505,-6.6625,-6.6679,-6.6639,-6.6874,-6.6796,-6.6809,-6.6815,-6.6884,-6.691,-6.6933,-6.6626,-6.6625,-6.6624,0,0,-6.6315,-6.6337,-6.6432,-6.6459,-6.6498,-6.6495,-6.6518,-6.6546,-6.6551,-6.6652,-6.6605,-6.6666,-6.677,-6.6798,-6.6826,-6.7008,-6.6969,-6.7027,-6.713,-6.7202,-6.7224,-6.7243,-6.731,-6.7334,-6.7041,-6.7042,-6.7042,0,-6.64,-6.6506,-6.6484,-6.6567,-6.6601,-6.6547,-6.6643,-6.6669,-6.6724,-6.6749,-6.6703,-6.6835,-6.6854,-6.6982,-6.7027,-6.705,-6.7076,-6.7024,-6.7222,-6.7242,-6.7259,-6.7323,-6.7348,-6.7048,-6.7048,-6.7047,-6.7046,0,-6.661,-6.6684,-6.6756,-6.6813,-6.6855,-6.6943,-6.6935,-6.698,-6.6959,-6.6961,-6.7065,-6.7087,-6.7148,-6.7176,-6.7155,-6.7301,-6.7275,-6.7227,-6.7146,-6.7293,-6.7352,-6.7376,-6.7058,-6.7056,-6.7054,-6.7052,0,0,-6.6839,-6.6885,-6.6912,-6.6938,-6.6978,-6.7034,-6.712,-6.7181,-6.7222,-6.7261,-6.7333,-6.7424,-6.738,-6.7412,-6.7393,-6.7456,-6.7602,-6.74,-6.74,-6.7439,-6.7767,-6.7805,-6.7834,-6.7576,-6.7581,-6.7584,-6.7765,0,-6.7011,-6.7163,-6.7147,-6.7291,-6.7361,-6.7311,-6.7386,-6.7418,-6.7423,-6.7481,-6.7484,-6.7551,-6.7486,-6.7506,-6.7566,-6.7572,-6.7668,-6.7558,-6.7644,-6.7647,-6.7639,-6.7864,-6.7904,-6.8074,-6.7787,-6.7791,-6.7794,0,-6.7232,-6.7283,-6.7435,-6.7467,-6.7495,-6.7564,-6.762,-6.7676,-6.7712,-6.771,-6.7747,-6.7719,-6.7805,-6.7722,-6.7841,-6.7767,-6.78,-6.7809,-6.7815,-6.7824,-6.7731,-6.7881,-6.8127,-6.8153,-6.783,-6.7827,-6.7825,0,-6.7387,-6.7493,-6.7599,-6.7622,-6.7661,-6.7711,-6.7729,-6.776,-6.7799,-6.7847,-6.7872,-6.7928,-6.796,-6.8005,-6.7992,-6.7932,-6.8115,-6.803,-6.8117,-6.8118,-6.8159,-6.8157,-6.8416,-6.8178,-6.8177,-6.8177,-6.8176,0,-6.7583,-6.7678,-6.7669,-6.7734,-6.784,-6.782,-6.7925,-6.7937,-6.7966,-6.8032,-6.799,-6.8053,-6.8032,-6.8093,-6.8084,-6.8185,-6.8199,-6.8201,-6.8197,-6.8206,-6.8206,-6.8229,-6.8218,-6.8183,-6.8182,-6.8181,-6.8179,0,-6.7774,-6.7772,-6.7884,-6.7913,-6.7922,-6.7999,-6.8023,-6.8084,-6.8085,-6.817,-6.8188,-6.8191,-6.8261,-6.8253,-6.833,-6.8324,-6.8451,-6.8432,-6.844,-6.8437,-6.8525,-6.8518,-6.881,-6.8848,-6.8583,-6.8585,-6.8587,0,-6.79,-6.7973,-6.801,-6.8053,-6.8075,-6.8144,-6.8184,-6.8167,-6.821,-6.8258,-6.8314,-6.8381,-6.8434,-6.8549,-6.8556,-6.8616,-6.86,-6.8698,-6.8608,-6.8616,-6.8604,-6.8601,-6.8609,-6.8716,-6.8719,-6.8722,-6.8724,0,-6.8124,-6.812,-6.818,-6.8242,-6.8291,-6.8338,-6.838,-6.8417,-6.8404,-6.8454,-6.8527,-6.8569,-6.865,-6.8718,-6.8775,-6.8792,-6.8757,-6.8752,-6.8775,-6.8786,-6.8789,-6.8791,-6.8491,-6.8745,-6.8743,-6.8742,-6.874,-6.874,-6.8288,-6.8352,-6.8389,-6.8458,-6.8489,-6.853,-6.859,-6.86,-6.8661,-6.8728,-6.8713,-6.8796,-6.883,-6.8904,-6.8927,-6.8991,-6.8955,-6.8989,-6.8998,-6.9007,-6.9019,-6.8777,-6.9001,-6.9,-6.9,-6.8999,-6.8999,0,-6.8512,-6.8534,-6.8598,-6.866,-6.8715,-6.8678,-6.8724,-6.8772,-6.8846,-6.8882,-6.8936,-6.9021,-6.9087,-6.9101,-6.9163,-6.9212,-6.9198,-6.923,-6.9227,-6.9232,-6.9046,-6.9021,-6.924,-6.924,-6.924,-6.924,-6.924,-6.924,-6.8636,-6.8743,-6.8743,-6.8865,-6.8885,-6.8968,-6.8998,-6.9035,-6.9065,-6.9162,-6.9218,-6.9227,-6.9254,-6.9319,-6.9378,-6.9381,-6.9407,-6.9446,-6.9442,-6.9269,-6.9244,-6.9222,-6.9198,-6.9451,-6.9451,-6.9622,-6.9624,-6.9625]}]]